Gillette, WY

4:57 PM MDT on June 26, 2017 (GMT -0600)
Gillette-Campbell County

Weather History for KGCC - July, 2013

Change the Weather History Date:

Thursday, July 25, 2013

  Actual Average Record
Temperature  
Mean Temperature 68 °F 73 °F  
Max Temperature 79 °F 88 °F 102 °F (1929)
Min Temperature 56 °F 57 °F 47 °F (2014)
Degree Days  
Heating Degree Days 0 0  
Month to date heating degree days 0 14  
Since 1 June heating degree days 117 156  
Since 1 July heating degree days 0 14  
Cooling Degree Days 3 8  
Month to date cooling degree days 200 168  
Year to date cooling degree days 254 236  
Since 1 June cooling degree days 246 228  
Growing Degree Days 18 (Base 50)    
Moisture  
Dew Point 54 °F    
Average Humidity 65    
Maximum Humidity 93    
Minimum Humidity 36    
Precipitation  
Precipitation 0.13 in 0.05 in 1.47 in (1981)
Month to date precipitation 2.38 1.36  
Year to date precipitation 11.93 9.23  
Sea Level Pressure  
Sea Level Pressure 30.07 in    
Wind  
Wind Speed 8 mph (NNE)    
Max Wind Speed 26 mph    
Max Gust Speed 36 mph    
Visibility 10 miles    
Events Rain , Thunderstorm    
T = Trace of Precipitation, MM = Missing Value Source: NWS Daily Summary

Daily Weather History Graph

Daily Weather History Graph

Search for Another Location

Airport or City:

Trip Planner

Search our weather history database for the weather conditions in past years. The results will help you decide how hot, cold, wet, or windy it might be!

Date:

Astronomy

Jul. 25, 2013 Rise Set
Actual Time 5:42 AM MDT 8:34 PM MDT
Civil Twilight 5:08 AM MDT 9:08 PM MDT
Nautical Twilight 4:24 AM MDT 9:51 PM MDT
Astronomical Twilight 3:33 AM MDT 10:42 PM MDT
Moon 10:04 PM MDT (7/25) 9:25 AM MDT (7/25)
Length of Visible Light 16h 00m
Length of Day
14h 52m
Waning Gibbous, 88% of the Moon is Illuminated
Jul 25
Waning Gibbous
Jul 29
Last Quarter
Aug 6
New
Aug 14
First Quarter
Aug 20
Full

Hourly Weather History & Observations

Time (MDT) Temp. Dew Point Humidity Pressure Visibility Wind Dir Wind Speed Gust Speed Precip Events Conditions
12:53 AM 69.1 °F 55.0 °F 61% 29.85 in 10.0 mi South 11.5 mph - N/A   Clear
1:48 AM 64.4 °F 53.6 °F 68% 30.08 in 10.0 mi NNE 19.6 mph 35.7 mph N/A   Scattered Clouds
1:53 AM 64.0 °F 53.1 °F 67% 29.93 in 10.0 mi NE 23.0 mph 31.1 mph N/A   Mostly Cloudy
2:53 AM 61.0 °F 52.0 °F 72% 29.91 in 10.0 mi East 10.4 mph 19.6 mph N/A   Clear
3:53 AM 62.1 °F 50.0 °F 65% 29.94 in 10.0 mi West 3.5 mph - N/A   Clear
4:53 AM 60.1 °F 54.0 °F 80% 30.03 in 10.0 mi North 13.8 mph - N/A Thunderstorm Thunderstorm
5:12 AM 57.2 °F 55.4 °F 94% 30.16 in 8.0 mi South 3.5 mph - 0.13 in Rain Light Rain
5:22 AM 57.2 °F 55.4 °F 94% 30.16 in 10.0 mi SSW 4.6 mph - 0.13 in Rain , Thunderstorm Light Rain
5:37 AM 57.2 °F 55.4 °F 94% 30.16 in 10.0 mi West 3.5 mph - 0.13 in   Overcast
5:53 AM 57.9 °F 55.9 °F 93% 29.98 in 10.0 mi NE 12.7 mph - 0.13 in   Mostly Cloudy
6:53 AM 59.0 °F 57.0 °F 93% 30.03 in 10.0 mi NNW 8.1 mph - N/A   Clear
7:33 AM 60.8 °F 57.2 °F 88% 30.18 in 10.0 mi NW 6.9 mph - N/A   Partly Cloudy
7:53 AM 61.0 °F 57.0 °F 87% 30.05 in 10.0 mi NNW 8.1 mph - N/A   Partly Cloudy
8:53 AM 66.0 °F 57.9 °F 75% 30.06 in 10.0 mi NNW 8.1 mph - N/A   Clear
9:53 AM 69.1 °F 59.0 °F 70% 30.07 in 10.0 mi NW 8.1 mph - N/A   Clear
10:53 AM 72.0 °F 55.9 °F 57% 30.09 in 10.0 mi North 11.5 mph 19.6 mph N/A   Clear
11:53 AM 73.0 °F 54.0 °F 51% 30.09 in 10.0 mi NNE 10.4 mph - N/A   Clear
12:53 PM 75.9 °F 53.1 °F 45% 30.08 in 10.0 mi NNE 16.1 mph 20.7 mph N/A   Clear
1:53 PM 75.9 °F 52.0 °F 43% 30.09 in 10.0 mi NNE 11.5 mph 18.4 mph N/A   Clear
2:53 PM 75.9 °F 51.1 °F 42% 30.09 in 10.0 mi NE 8.1 mph - N/A   Clear
3:53 PM 78.1 °F 51.1 °F 39% 30.08 in 10.0 mi NE 10.4 mph - N/A   Clear
4:53 PM 77.0 °F 48.9 °F 37% 30.08 in 10.0 mi Variable 5.8 mph - N/A   Clear
5:53 PM 78.1 °F 51.1 °F 39% 30.07 in 10.0 mi ENE 11.5 mph - N/A   Clear
6:53 PM 77.0 °F 50.0 °F 39% 30.06 in 10.0 mi NE 9.2 mph - N/A   Clear
7:53 PM 73.0 °F 51.1 °F 46% 30.09 in 10.0 mi ENE 6.9 mph - N/A   Partly Cloudy
8:53 PM 68.0 °F 51.1 °F 55% 30.10 in 10.0 mi East 3.5 mph - N/A   Clear
9:53 PM 64.9 °F 51.1 °F 61% 30.11 in 10.0 mi East 3.5 mph - N/A   Mostly Cloudy
10:53 PM 57.0 °F 53.1 °F 87% 30.14 in 10.0 mi Calm Calm - N/A   Partly Cloudy
11:53 PM 57.0 °F 52.0 °F 83% 30.15 in 10.0 mi North 3.5 mph - N/A   Clear